Probability
3 3 2 2 3 2 2 1 0 0 0 0 0 0 0 0 0 0 0 0 1 2 2 2 3 4 3 3 1 0 0 0 0 0 1 1 1 2 2 2 2 3 3
3 3 2 2 2 1 1 0 0 0 0 0 0 0 0 0 0 0 0 0 0 1 1 1 3 3 3 3 2 1 1 0 0 0 0 1 2 2 3 2 2 2 3
3 2 1 1 1 0 0 0 0 0 0 0 0 0 0 0 0 0 0 0 0 0 0 1 2 3 3 3 3 3 2 1 0 0 0 0 1 2 3 3 1 1 2
3 2 1 0 0 0 0 0 0 0 0 0 0 0 0 0 0 0 0 0 0 0 0 0 1 2 3 3 3 3 3 2 1 0 0 0 0 1 2 3 2 2 2
3 3 1 0 0 0 0 0 0 0 0 0 0 0 0 0 0 0 0 0 0 0 0 0 0 1 3 3 3 3 3 3 2 1 0 0 0 0 1 2 3 3 2
3 3 2 1 0 0 0 0 0 0 0 0 0 0 0 0 0 0 0 0 0 0 0 0 0 1 2 3 2 1 1 2 2 1 1 0 0 0 0 0 2 3 3
3 3 2 1 0 0 0 0 0 0 0 0 0 0 0 0 0 0 0 0 0 0 0 0 0 0 1 2 1 0 0 1 2 2 2 1 1 0 0 0 0 1 2
3 3 2 1 0 0 0 0 0 0 0 0 0 0 0 0 0 0 0 0 0 0 0 0 0 0 0 0 0 0 0 0 1 1 2 2 2 1 0 0 0 0 1
3 3 3 1 0 0 0 0 0 0 0 0 0 0 0 0 0 0 0 0 0 0 0 0 0 0 0 0 0 0 0 0 0 0 1 2 2 1 0 0 0 0 0
3 3 3 2 1 0 0 0 0 0 0 0 0 0 0 0 0 0 0 0 0 0 0 0 0 0 0 0 0 0 0 0 0 0 1 2 2 1 0 0 0 0 0
3 3 3 2 1 0 0 0 0 0 0 0 0 0 0 0 0 0 0 0 0 0 0 0 0 0 0 0 0 0 0 0 0 0 1 2 2 2 1 0 0 0 0
3 3 3 2 1 0 0 0 0 0 0 0 0 0 0 0 0 0 0 0 0 0 0 0 0 0 0 0 0 0 0 0 0 0 0 1 2 2 2 1 0 0 0
3 3 2 1 0 0 0 0 0 0 0 0 0 0 0 0 0 0 0 0 0 0 0 0 0 0 0 0 0 0 0 0 0 0 0 0 1 1 1 1 0 0 0
3 3 1 0 0 0 0 0 0 0 0 0 0 0 0 0 0 0 0 0 0 0 0 0 0 0 0 0 0 0 0 0 0 0 0 0 0 0 0 0 0 0 0
3 2 1 0 0 0 0 0 0 0 0 0 0 0 0 0 0 0 0 0 0 0 0 0 0 0 0 0 0 0 0 0 0 0 0 0 0 0 0 0 0 0 0
2 1 0 0 0 0 0 0 0 0 0 0 0 0 0 0 0 0 0 0 0 0 0 0 0 0 0 0 0 0 0 0 0 0 0 0 0 0 0 0 0 0 0
1 0 0 0 0 0 0 0 0 0 0 0 0 0 0 0 0 0 0 0 0 0 0 0 0 0 0 0 0 0 0 0 0 0 0 0 0 0 0 0 0 0 0
0 0 0 0 0 0 0 0 0 0 0 0 0 0 0 0 0 0 0 0 0 0 0 0 0 0 0 0 0 0 0 0 0 0 0 0 0 0 0 0 0 0 0
0 0 0 0 0 0 0 0 0 0 0 0 0 0 0 0 0 0 0 0 0 0 0 0 0 0 0 0 0 0 0 0 0 0 0 0 0 0 0 0 0 0 0
0 0 0 0 0 0 0 0 0 0 0 0 0 0 0 0 0 0 0 0 0 0 0 0 0 0 0 0 0 0 0 0 0 0 0 0 0 0 0 0 0 0 0
0 0 0 0 0 0 0 0 0 0 0 0 0 0 0 0 0 0 0 0 0 0 0 0 0 0 0 0 0 0 0 0 0 0 0 0 0 0 0 0 0 0 0
0 0 0 0 0 0 0 0 0 0 0 0 0 0 0 0 0 0 0 0 0 0 0 0 0 0 0 0 0 0 0 0 0 0 0 0 0 0 0 0 0 0 0
0 0 0 0 0 0 0 0 0 0 0 0 0 0 0 0 0 0 0 0 0 0 0 0 0 0 0 0 0 0 0 0 0 0 0 0 0 0 0 0 0 0 0
0 0 0 0 0 0 0 0 0 0 0 0 0 0 0 0 0 0 0 0 0 0 0 0 0 0 0 0 0 0 0 0 0 0 0 0 0 0 0 0 0 0 0
0 0 0 0 0 0 0 0 0 0 0 0 0 0 0 0 0 0 0 0 0 0 0 0 0 0 0 0 0 0 0 0 0 0 0 0 0 0 0 0 0 0 0
0 0 0 0 0 0 0 0 0 0 0 0 0 0 0 0 0 0 0 0 0 0 0 0 0 0 0 0 0 0 0 0 0 0 0 0 0 0 0 0 0 0 0
Wind_Speed
1 1 1 1 1 1 1 1 1 1 2 2 1 2 2 2 2 2 2 5 5 4 3 3 3 2 2 2 3 3 3 3 3 4 4 3 3 4 4 5 6 6 6
1 1 1 1 1 1 1 1 1 1 1 1 1 1 1 1 1 1 2 3 5 5 4 4 3 2 2 2 3 3 2 3 3 3 3 3 3 4 4 5 6 6 7
1 1 1 1 0 1 1 1 2 1 1 1 1 1 1 1 1 1 1 1 2 4 5 4 3 3 2 2 2 2 3 3 3 3 3 3 3 4 4 5 6 7 7
1 1 1 1 0 1 1 1 1 1 1 1 0 1 1 0 1 1 1 1 1 2 3 5 4 3 3 3 2 2 2 2 3 3 3 3 4 5 5 6 7 7 7
1 1 1 1 1 1 1 1 1 1 1 0 0 0 0 0 0 0 1 1 1 1 1 3 5 5 4 4 3 3 2 2 3 3 4 5 5 5 6 7 7 8 8
1 1 1 1 1 1 0 1 1 1 0 1 0 1 1 1 0 0 1 0 0 0 0 1 2 3 4 4 4 4 4 4 4 4 5 5 6 6 6 7 7 8 8
2 2 1 1 1 1 1 1 1 1 1 0 1 1 2 1 0 0 1 0 0 0 0 0 0 1 2 4 5 5 5 5 5 5 5 6 6 6 6 6 7 8 9
2 2 2 2 2 1 1 1 1 1 0 0 1 1 1 2 2 1 1 1 1 0 1 1 1 1 1 1 3 5 6 6 7 6 6 6 7 7 7 7 8 9 9
2 2 2 3 2 2 2 2 2 2 1 1 0 2 2 2 2 1 1 1 1 1 1 1 1 1 1 1 2 3 6 7 8 8 7 7 8 8 8 8 8 9 9
2 2 2 3 3 2 2 2 2 1 2 2 1 0 1 2 2 1 2 1 1 1 1 1 1 2 1 1 2 4 6 7 8 8 8 8 8 9 8 8 9 9 9
2 2 2 2 2 2 3 2 2 1 2 2 2 1 0 0 1 2 2 3 2 2 2 2 1 2 2 1 1 4 6 7 8 9 9 9 9 9 9 9 9 9 10
2 3 3 2 3 3 3 3 3 2 2 2 1 1 1 1 1 1 2 2 3 3 2 2 1 2 1 1 3 5 6 6 7 8 8 9 10 10 10 10 9 9 10
2 3 3 3 3 3 3 3 3 3 3 3 2 2 2 2 1 1 1 2 2 2 2 2 2 1 1 1 3 6 6 7 7 7 8 9 9 10 10 10 10 10 10
3 3 3 3 3 3 3 3 3 3 2 3 3 3 2 2 2 2 2 1 1 2 2 3 2 2 2 2 4 5 4 7 7 7 8 8 9 9 9 9 10 10 10
3 3 3 3 3 3 3 3 3 3 3 3 3 3 3 2 2 2 2 2 2 2 3 3 2 2 2 2 4 2 3 7 8 8 8 8 8 9 9 9 9 9 9
3 3 4 4 3 3 3 3 3 3 3 3 3 3 3 3 2 2 2 2 2 3 3 2 3 3 3 3 4 2 3 7 7 8 8 8 8 8 8 8 9 9 9
4 4 4 4 4 4 4 3 4 3 4 4 3 4 4 3 2 2 2 2 2 2 4 3 2 2 2 3 3 2 3 3 4 8 8 8 8 8 8 8 8 8 9
4 4 4 4 4 4 4 5 5 4 4 5 4 4 4 3 3 3 2 2 3 3 3 4 3 2 3 3 2 3 3 3 3 7 8 8 7 7 8 7 7 8 8
4 4 4 4 4 4 4 5 5 5 5 5 5 5 4 4 4 3 3 3 3 3 2 3 3 2 2 2 2 2 3 2 3 4 6 6 7 8 8 8 8 8 8
4 4 4 4 4 4 4 4 4 4 5 4 4 5 5 5 5 5 4 4 3 3 2 3 3 2 2 2 1 2 2 2 3 3 4 5 6 8 8 8 8 8 7
4 4 4 4 4 4 4 5 4 4 4 4 4 4 5 5 6 5 4 3 3 3 2 3 3 2 2 2 2 1 2 3 3 2 2 3 3 3 4 6 7 7 8
3 3 4 4 4 4 5 6 5 4 4 4 4 4 4 5 6 7 7 6 5 4 4 3 3 4 4 3 2 2 2 2 3 1 1 3 2 3 3 3 6 8 8
3 3 4 4 4 5 6 7 6 4 4 4 4 4 4 4 5 4 6 6 6 7 6 4 4 5 4 4 3 3 3 3 4 2 1 3 2 3 3 4 7 8 7
3 3 3 4 4 5 6 6 6 4 3 4 4 4 4 5 5 4 4 4 4 4 5 5 5 5 4 4 4 3 3 2 2 2 1 2 2 2 3 3 6 6 7
3 3 3 3 4 5 6 6 5 3 3 4 4 4 5 5 6 5 3 4 4 4 4 4 4 4 5 4 2 1 1 1 2 2 1 1 2 3 3 3 3 6 7
2 3 3 3 4 4 5 6 5 3 3 3 3 4 6 6 6 5 4 4 4 3 2 2 2 2 2 2 3 2 2 2 1 2 1 1 1 2 3 2 2 2 3
Wind_Direction
139 129 110 89 77 64 83 93 83 79 78 73 67 69 51 47 38 16 2 22 33 48 53 58 65 75 75 74 71 69 65 56 45 38 37 35 22 8 357 353 355 349 344
145 146 135 126 113 113 104 102 102 94 86 82 63 51 53 36 45 35 16 16 24 29 34 37 34 37 42 41 47 46 48 53 35 27 25 20 11 351 345 345 342 339 343
143 145 142 157 185 137 112 92 88 85 82 72 54 28 39 34 30 52 52 35 16 19 23 19 17 16 358 10 35 26 25 30 16 8 8 2 2 349 337 333 333 336 336
134 131 140 176 187 110 106 113 114 108 105 98 50 10 18 9 4 36 69 57 39 19 12 17 9 4 360 359 10 12 2 360 359 358 353 344 340 334 334 331 326 326 328
149 135 155 169 147 116 110 129 106 129 137 133 337 359 336 309 274 85 91 79 71 42 12 11 10 359 358 351 353 350 340 334 336 336 335 328 324 324 322 325 326 324 323
172 154 146 149 132 109 82 114 114 71 122 177 65 358 330 300 249 195 197 132 98 92 43 14 4 345 352 345 343 338 336 335 326 322 321 318 313 314 317 316 325 326 322
184 171 167 165 155 141 173 164 131 91 30 38 78 1 336 325 322 276 229 200 230 218 207 292 335 341 329 342 336 331 327 327 324 323 321 317 315 310 310 316 320 322 324
191 191 177 180 180 161 158 168 149 137 28 32 137 125 337 328 319 300 231 201 224 257 280 289 236 242 275 295 323 331 326 324 320 320 319 316 315 309 308 312 318 318 319
193 200 195 187 184 177 185 189 182 167 183 280 201 165 167 216 291 297 276 241 238 241 267 286 274 271 266 278 286 313 327 322 317 318 318 316 314 311 306 310 313 316 319
202 203 201 193 189 186 184 195 191 195 174 201 271 295 216 170 174 275 292 283 278 265 264 290 289 280 278 274 294 314 321 317 313 315 313 311 311 313 307 308 310 314 315
215 205 198 199 195 189 187 187 192 192 189 192 190 196 298 343 172 179 260 291 305 283 271 262 252 263 274 273 273 297 313 312 313 314 314 312 310 310 313 310 309 309 311
225 215 200 202 207 198 194 196 198 190 200 200 195 186 188 198 212 184 223 251 272 283 288 273 254 258 265 266 288 306 304 307 308 311 314 314 311 308 309 312 312 310 309
232 227 213 206 214 209 199 195 199 203 202 204 209 217 218 226 213 205 215 243 271 291 296 288 262 259 274 277 284 300 295 300 305 308 311 311 312 310 308 308 309 310 312
226 222 212 210 217 216 206 197 201 214 210 214 220 218 222 232 227 212 205 204 269 287 274 271 288 254 266 273 280 299 291 304 304 305 306 306 308 308 307 307 308 309 312
224 212 207 210 214 217 214 198 208 218 213 220 224 220 226 232 230 224 207 201 195 247 263 254 267 272 286 282 291 292 287 298 304 301 303 304 303 303 303 304 305 306 310
223 215 213 212 212 216 218 204 213 219 218 229 225 222 230 230 221 220 213 218 214 214 246 253 257 279 293 299 302 298 282 303 300 298 301 302 302 302 304 302 302 304 308
213 216 213 212 213 213 213 210 217 215 223 236 230 225 233 225 218 220 223 223 225 214 245 272 271 282 281 282 304 296 289 285 288 298 301 301 303 307 308 303 301 304 306
217 219 212 211 211 215 214 211 217 218 222 233 230 224 232 226 222 223 219 233 236 223 226 260 278 283 276 274 284 296 306 308 292 298 303 301 306 310 310 310 309 306 306
222 220 211 211 214 218 219 216 215 219 226 232 227 222 228 219 226 228 224 231 242 239 225 235 262 267 272 277 300 302 301 300 301 305 309 305 307 308 310 310 313 312 310
223 217 215 217 217 218 221 219 217 221 227 235 233 228 229 224 226 225 227 228 234 233 230 231 247 257 258 271 271 283 304 301 301 308 307 307 306 311 311 310 310 309 309
235 220 215 221 221 217 218 216 218 221 225 237 238 233 233 237 241 236 234 227 224 224 224 234 246 259 254 256 257 259 282 301 294 281 288 298 304 304 306 305 306 302 305
240 219 215 218 222 227 226 224 222 221 225 232 239 240 242 241 246 250 252 247 237 231 224 222 238 248 255 254 251 248 263 299 295 270 290 300 300 294 295 290 292 301 305
226 216 215 217 224 231 229 229 225 219 225 235 239 243 248 253 251 240 250 251 248 248 236 223 227 237 242 239 230 236 243 266 275 267 286 291 294 291 297 302 303 302 306
224 218 218 222 227 234 232 236 232 222 229 238 240 239 237 245 248 240 230 235 243 246 241 232 228 236 243 236 221 227 228 262 273 272 256 274 288 287 300 301 301 305 309
232 223 217 220 227 235 233 237 238 218 228 242 242 240 238 239 251 247 224 231 248 256 254 249 252 259 267 263 249 180 190 251 287 285 270 254 277 302 298 293 297 311 315
235 221 223 227 231 235 240 243 240 217 225 239 246 244 244 247 252 248 224 220 235 240 227 237 247 269 262 248 255 207 196 221 269 274 250 265 262 324 309 293 301 309 311